Meteo pe oră la Bolshie Ozerki

Astăzi, 19 Mai, Miercuri

Timp Temperatura Precipitaţii Vânt Presiune Umiditate
00:00 +17°C° 0 mm 2 m/s 739 mmHg 94%
01:00 +16°C° 0 mm 2 m/s 740 mmHg 94%
02:00 +16°C° 0 mm 2 m/s 740 mmHg 95%
03:00 +14°C° 0 mm 3 m/s 740 mmHg 96%
04:00 +16°C° 0 mm 3 m/s 740 mmHg 94%
05:00 +16°C° 0 mm 3 m/s 740 mmHg 92%
06:00 +16°C° 0 mm 3 m/s 740 mmHg 90%
07:00 +17°C° 0 mm 3 m/s 740 mmHg 83%
08:00 +19°C° 0 mm 3 m/s 741 mmHg 75%
09:00 +20°C° 0 mm 3 m/s 741 mmHg 68%
10:00 +21°C° 0 mm 3 m/s 741 mmHg 63%
11:00 +22°C° 0 mm 3 m/s 740 mmHg 59%
12:00 +24°C° 0 mm 3 m/s 740 mmHg 55%
13:00 +25°C° 0 mm 4 m/s 740 mmHg 55%
14:00 +25°C° 0 mm 4 m/s 740 mmHg 55%
15:00 +25°C° 0 mm 5 m/s 740 mmHg 55%
16:00 +25°C° 0.1 mm 4 m/s 739 mmHg 59%
17:00 +24°C° 0.1 mm 3 m/s 739 mmHg 64%
18:00 +22°C° 0.1 mm 3 m/s 739 mmHg 68%
19:00 +20°C° 0.1 mm 3 m/s 739 mmHg 74%
20:00 +18°C° 0.1 mm 3 m/s 739 mmHg 79%
21:00 +16°C° 0.1 mm 3 m/s 739 mmHg 84%
22:00 +14°C° 0.4 mm 3 m/s 739 mmHg 87%
23:00 +14°C° 0.4 mm 4 m/s 740 mmHg 89%

Mâine, 20 Mai, Joi

Timp Temperatura Precipitaţii Vânt Presiune Umiditate
00:00 +13°C° 0.4 mm 4 m/s 740 mmHg 92%
01:00 +13°C° 0.1 mm 4 m/s 740 mmHg 92%
02:00 +12°C° 0.1 mm 4 m/s 740 mmHg 93%
03:00 +12°C° 0.1 mm 4 m/s 740 mmHg 94%
04:00 +12°C° 0 mm 4 m/s 740 mmHg 93%
05:00 +12°C° 0 mm 4 m/s 740 mmHg 93%
06:00 +12°C° 0 mm 4 m/s 740 mmHg 92%
07:00 +13°C° 0 mm 5 m/s 740 mmHg 88%
08:00 +14°C° 0 mm 6 m/s 740 mmHg 83%
09:00 +15°C° 0 mm 7 m/s 740 mmHg 78%
10:00 +15°C° 0.1 mm 6 m/s 740 mmHg 76%
11:00 +15°C° 0.1 mm 6 m/s 741 mmHg 75%
12:00 +16°C° 0.1 mm 6 m/s 741 mmHg 73%
13:00 +16°C° 0.1 mm 5 m/s 741 mmHg 71%
14:00 +17°C° 0.1 mm 5 m/s 741 mmHg 68%
15:00 +19°C° 0.1 mm 5 m/s 741 mmHg 66%
16:00 +19°C° 0.1 mm 4 m/s 741 mmHg 69%
17:00 +19°C° 0.1 mm 4 m/s 741 mmHg 71%
18:00 +18°C° 0.1 mm 4 m/s 741 mmHg 74%
19:00 +17°C° 0.2 mm 3 m/s 741 mmHg 80%
20:00 +14°C° 0.2 mm 3 m/s 741 mmHg 86%
21:00 +13°C° 0.2 mm 3 m/s 742 mmHg 92%
22:00 +12°C° 0 mm 3 m/s 742 mmHg 93%
23:00 +12°C° 0 mm 3 m/s 742 mmHg 93%

Poimâine, 21 Mai, Vineri

Timp Temperatura Precipitaţii Vânt Presiune Umiditate
00:00 +12°C° 0 mm 3 m/s 742 mmHg 94%
01:00 +12°C° 0 mm 3 m/s 742 mmHg 94%
02:00 +12°C° 0 mm 3 m/s 742 mmHg 95%
03:00 +12°C° 0 mm 3 m/s 742 mmHg 95%
04:00 +12°C° 0 mm 3 m/s 743 mmHg 94%
05:00 +12°C° 0 mm 3 m/s 743 mmHg 93%
06:00 +12°C° 0 mm 3 m/s 743 mmHg 92%
07:00 +13°C° 0 mm 4 m/s 743 mmHg 87%
08:00 +14°C° 0 mm 4 m/s 744 mmHg 82%
09:00 +15°C° 0 mm 4 m/s 744 mmHg 77%
10:00 +15°C° 0 mm 4 m/s 744 mmHg 74%
11:00 +15°C° 0 mm 4 m/s 744 mmHg 71%
12:00 +17°C° 0 mm 4 m/s 745 mmHg 68%
13:00 +17°C° 0 mm 4 m/s 745 mmHg 65%
14:00 +18°C° 0 mm 3 m/s 745 mmHg 62%
15:00 +19°C° 0 mm 3 m/s 745 mmHg 59%
16:00 +19°C° 0 mm 2 m/s 745 mmHg 62%
17:00 +19°C° 0 mm 2 m/s 745 mmHg 64%
18:00 +19°C° 0 mm 2 m/s 745 mmHg 67%
19:00 +17°C° 0 mm 2 m/s 746 mmHg 72%
20:00 +16°C° 0 mm 2 m/s 746 mmHg 76%
21:00 +14°C° 0 mm 2 m/s 746 mmHg 81%
22:00 +14°C° 0 mm 2 m/s 746 mmHg 81%
23:00 +14°C° 0 mm 2 m/s 746 mmHg 82%

22 Mai, Sâmbătă

Timp Temperatura Precipitaţii Vânt Presiune Umiditate
00:00 +13°C° 0 mm 2 m/s 746 mmHg 82%
01:00 +13°C° 0 mm 2 m/s 747 mmHg 83%
02:00 +13°C° 0 mm 2 m/s 747 mmHg 83%
03:00 +13°C° 0 mm 2 m/s 747 mmHg 84%
04:00 +12°C° 0.8 mm 3 m/s 747 mmHg 87%
05:00 +12°C° 0.8 mm 3 m/s 747 mmHg 90%
06:00 +11°C° 0.8 mm 3 m/s 747 mmHg 93%
07:00 +12°C° 0.2 mm 4 m/s 747 mmHg 91%
08:00 +14°C° 0.2 mm 4 m/s 747 mmHg 88%
09:00 +15°C° 0.2 mm 5 m/s 747 mmHg 85%
10:00 +16°C° 0 mm 6 m/s 747 mmHg 80%
11:00 +19°C° 0 mm 6 m/s 746 mmHg 75%
12:00 +20°C° 0 mm 7 m/s 746 mmHg 70%
13:00 +20°C° 0.1 mm 6 m/s 746 mmHg 73%
14:00 +20°C° 0.1 mm 6 m/s 745 mmHg 76%
15:00 +20°C° 0.1 mm 6 m/s 745 mmHg 79%
16:00 +20°C° 0 mm 6 m/s 745 mmHg 80%
17:00 +19°C° 0 mm 6 m/s 745 mmHg 82%
18:00 +19°C° 0 mm 6 m/s 744 mmHg 83%
19:00 +17°C° 0 mm 6 m/s 744 mmHg 85%
20:00 +16°C° 0 mm 6 m/s 744 mmHg 88%
21:00 +15°C° 0 mm 6 m/s 744 mmHg 91%
22:00 +15°C° 0.1 mm 5 m/s 744 mmHg 92%
23:00 +15°C° 0.1 mm 5 m/s 744 mmHg 93%

23 Mai, Duminică

Timp Temperatura Precipitaţii Vânt Presiune Umiditate
00:00 +14°C° 0.1 mm 4 m/s 744 mmHg 94%
01:00 +14°C° 0.1 mm 4 m/s 743 mmHg 94%
02:00 +14°C° 0.1 mm 4 m/s 743 mmHg 94%
03:00 +15°C° 0.1 mm 4 m/s 743 mmHg 93%
04:00 +15°C° 0 mm 4 m/s 743 mmHg 91%
05:00 +17°C° 0 mm 4 m/s 743 mmHg 88%
06:00 +17°C° 0 mm 4 m/s 743 mmHg 86%
07:00 +19°C° 0 mm 5 m/s 743 mmHg 79%
08:00 +21°C° 0 mm 5 m/s 743 mmHg 72%
09:00 +23°C° 0 mm 6 m/s 743 mmHg 64%
10:00 +24°C° 0 mm 6 m/s 743 mmHg 60%
11:00 +27°C° 0 mm 6 m/s 743 mmHg 55%
12:00 +28°C° 0 mm 6 m/s 743 mmHg 51%
13:00 +28°C° 0 mm 6 m/s 743 mmHg 51%
14:00 +29°C° 0 mm 5 m/s 742 mmHg 52%
15:00 +29°C° 0 mm 5 m/s 742 mmHg 53%
16:00 +28°C° 0 mm 4 m/s 742 mmHg 59%
17:00 +27°C° 0 mm 4 m/s 742 mmHg 66%
18:00 +25°C° 0 mm 3 m/s 742 mmHg 73%
19:00 +24°C° 0 mm 2 m/s 742 mmHg 74%
20:00 +24°C° 0 mm 2 m/s 741 mmHg 75%
21:00 +23°C° 0 mm 2 m/s 741 mmHg 76%
22:00 +21°C° 0 mm 2 m/s 741 mmHg 77%
23:00 +21°C° 0 mm 2 m/s 741 mmHg 78%

24 Mai, Luni

Timp Temperatura Precipitaţii Vânt Presiune Umiditate
00:00 +22°C° 0 mm 1 m/s 740 mmHg 78%
01:00 +20°C° 0 mm 2 m/s 740 mmHg 81%
02:00 +19°C° 0 mm 2 m/s 740 mmHg 83%
03:00 +18°C° 0 mm 2 m/s 739 mmHg 85%
04:00 +18°C° 0 mm 2 m/s 739 mmHg 86%
05:00 +19°C° 0 mm 2 m/s 740 mmHg 87%
06:00 +19°C° 0 mm 2 m/s 740 mmHg 88%
07:00 +20°C° 0 mm 3 m/s 740 mmHg 83%
08:00 +22°C° 0 mm 3 m/s 740 mmHg 79%
09:00 +24°C° 0 mm 3 m/s 740 mmHg 75%
10:00 +25°C° 0 mm 3 m/s 741 mmHg 71%
11:00 +26°C° 0 mm 3 m/s 741 mmHg 67%
12:00 +27°C° 0 mm 3 m/s 742 mmHg 63%
13:00 +27°C° 0 mm 3 m/s 742 mmHg 61%
14:00 +28°C° 0 mm 3 m/s 742 mmHg 58%
15:00 +28°C° 0 mm 3 m/s 742 mmHg 55%
16:00 +26°C° 0.1 mm 3 m/s 742 mmHg 62%
17:00 +25°C° 0.1 mm 3 m/s 742 mmHg 69%
18:00 +24°C° 0.1 mm 3 m/s 743 mmHg 76%
19:00 +21°C° 0.7 mm 3 m/s 743 mmHg 82%
20:00 +20°C° 0.7 mm 3 m/s 743 mmHg 88%
21:00 +18°C° 0.7 mm 3 m/s 743 mmHg 94%
22:00 +18°C° 0.3 mm 2 m/s 743 mmHg 94%
23:00 +17°C° 0.3 mm 2 m/s 743 mmHg 95%
Arată mai mult

Formular de consimțământ

Meteoprog și furnizorii noștri de servicii pot stoca și accesa date personale, precum cookies, identificatori de dispozitiv sau alte tehnologii similare pe dispozitivul dumneavoastră și procesa astfel de date pentru a personaliza conținutul și reclamele, dar și pentru a oferi caracteristici de social media și pentru a analiza traficul.

  • Stocarea și/sau accesarea informațiilor pe dispozitivul dumneavoastră

    Cookies, identificatori de dispozitiv sau alte informații pot fi stocate sau accesate pe dispozitiv în scopurile indicate mai sus.

  • Reclame și conținut personalizat, evaluarea reclamelor și a conținutului, informații despre audiențe și dezvoltarea produselor

    Reclamele și conținutul pot fi personalizate pe baza unui profil. Pot fi adăugate date suplimentare pentru a personaliza mai bine reclamele și conținutul. Performanța reclamelor și conținutului poate fi măsurată. Pot fi obținute informații despre utilizatorii care au văzut reclamele și conținutul. Aceste date pot fi utilizate pentru a dezvolta sau îmbunătăți experiența utilizatorilor, sistemele și software-ul.

Dând clic pe ‘Sunt de acord’, permiteți utilizarea cookie-urilor menționate, a identificatorilor de dispozitiv, balizelor web sau altor tehnologii similare. Setările pot fi modificate din browser-ul dispozitivului dumneavoastră.

În anumite scopuri, interesele legitime pot prima asupra consimțământului. Puteți citi mai multe informații în acest sens în Politica privind Confidențialitatea Datelor și Cookie.